Hourly Data Report for July 14, 2021

POND INLET A
NUNAVUT
Current Station Operator: NAVCAN

72°41'22.000" N
77°58'08.000" W
61.60 m
2403206
71095
YIO

Download Data

Hourly Data (July 2021)
Hourly Data Report for July 14, 2021
TIME
LST
Temp Definition
°C
Dew Point Definition
°C
Rel Hum Definition
%
Precip. Amount Definition
mm

Wind Dir Definition
10's deg

Wind Spd Definition
km/h
Visibility Definition
km
Stn Press Definition
kPa
Hmdx Definition


Wind Chill Definition


Weather Definition


00:00 3.4 2.1 91 0.0 22 18 16.1 98.29     LegendNANA
01:00 3.6 1.9 89 0.0 22 22 16.1 98.28     LegendNANA
02:00 3.4 2.4 93 0.0 23 17 16.1 98.27     Rain
03:00 3.9 2.6 91 0.0 22 13 16.1 98.24     LegendNANA
04:00 4.4 3.2 92 0.0 21 11 16.1 98.25     LegendNANA
05:00 4.0 2.8 92 0.0 23 15 16.1 98.26     LegendNANA
06:00 4.2 2.6 89 0.0 24 17 16.1 98.27     LegendNANA
07:00 4.5 2.6 87 0.0 24 11 16.1 98.30     LegendNANA
08:00 4.5 2.7 88 0.0 27 5 16.1 98.31     LegendNANA
09:00 4.4 2.6 88 0.0   0 16.1 98.35     LegendNANA
10:00 4.2 2.3 88 0.0   0 16.1 98.39     LegendNANA
11:00 4.3 2.8 90 0.0 30 5 11.3 98.40     LegendNANA
12:00 4.6 3.9 95 0.2 24 5 16.1 98.43     LegendNANA
13:00 5.7 4.0 89 0.0 LegendMM 4 16.1 98.47     LegendNANA
14:00 6.6 4.1 84 0.0 LegendMM 4 16.1 98.50     LegendNANA
15:00 7.1 4.1 81 0.0 LegendMM 5 16.1 98.57     LegendNANA
16:00 8.3 4.7 78 0.0 33 8 16.1 98.61     LegendNANA
17:00 7.0 3.6 79 0.0 28 8 16.1 98.70     LegendNANA
18:00 5.6 2.1 78 0.0 LegendMM 5 16.1 98.77     LegendNANA
19:00 6.2 1.9 74 0.0 23 22 16.1 98.81     LegendNANA
20:00 6.1 1.2 71 0.0 23 26 16.1 98.89     LegendNANA
21:00 6.7 1.5 69 0.0 21 24 16.1 98.97     LegendNANA
22:00 6.6 0.6 65 0.0 22 32 16.1 99.01     LegendNANA
23:00 6.0 0.9 70 0.0 22 24 16.1 99.08     LegendNANA

Notes on Data Quality.

Legend

  • E = Estimated
  • M = Missing
  • NA = Not Available*
  • [empty] = Indicates an unobserved value
Date modified: